Location: Ostrava
(49.8330°N, 18.2830°E)
Time: 08:24:51
(UTC+02:00)

Cosmos 1263 Rocket - Visible Passes

Search period start: 24 July 2014 00:00
Search period end: 03 August 2014 00:00
Orbit: 322 x 602 km, 82.9° (Epoch: 22 July)

Date Brightness Start Highest point End Pass type
(mag) Time Alt. Az. Time Alt. Az. Time Alt. Az.
25 Jul 5.2 21:52:00 10° NW 21:54:44 17° W 21:57:31 10° SW visible
26 Jul 4.5 21:19:33 10° NNW 21:23:10 28° W 21:26:52 10° SSW visible
28 Jul 5.7 21:52:44 10° WNW 21:53:36 11° W 21:54:29 10° W visible
29 Jul 5.3 21:19:08 10° NW 21:22:03 18° W 21:24:58 10° SW visible
01 Aug 5.8 21:19:16 10° WNW 21:20:33 11° W 21:21:50 10° W visible
